AAL2638 KCLT-KMYR

Flight info

Callsign AAL2638
Flight time 0h 32m
Altitude 19000
Route KWEEN5 UNJAM
Aircraft A339/H-SADE1E2E3GHIJ3J5M1P2RWXY/LB2D1

Departure

Time 2026-04-23 21:39
Airport Charlotte Douglas International Airport (KCLT)

Arrival

Time 2026-04-23 22:11
Airport Myrtle Beach International Airport (KMYR)
Time Latitude Longitude Altitude Speed Heading
2026-04-23 21:12 35.22030 -80.93876 750 ft 0 kts 302°
2026-04-23 21:22 35.22029 -80.93875 750 ft 0 kts 302°
2026-04-23 21:22 35.22027 -80.93871 750 ft 1 kts 303°
2026-04-23 21:22 35.22025 -80.93866 745 ft 1 kts 303°
2026-04-23 21:22 35.22020 -80.93858 745 ft 1 kts 303°
2026-04-23 21:23 35.22015 -80.93845 750 ft 2 kts 224°
2026-04-23 21:23 35.22026 -80.93835 746 ft 2 kts 217°
2026-04-23 21:23 35.22037 -80.93825 746 ft 2 kts 216°
2026-04-23 21:23 35.22048 -80.93815 746 ft 2 kts 213°
2026-04-23 21:24 35.22055 -80.93809 746 ft 1 kts 206°
2026-04-23 21:24 35.22056 -80.93808 746 ft 0 kts 205°
2026-04-23 21:25 35.22056 -80.93809 746 ft 0 kts 205°
2026-04-23 21:25 35.22055 -80.93809 746 ft 0 kts 205°
2026-04-23 21:26 35.22054 -80.93810 746 ft 0 kts 205°
2026-04-23 21:26 35.22053 -80.93810 746 ft 0 kts 205°
2026-04-23 21:28 35.22053 -80.93811 746 ft 0 kts 206°
2026-04-23 21:28 35.22052 -80.93811 746 ft 0 kts 206°
2026-04-23 21:32 35.22052 -80.93812 746 ft 0 kts 208°
2026-04-23 21:32 35.22051 -80.93812 746 ft 0 kts 208°
2026-04-23 21:33 35.22052 -80.93812 746 ft 0 kts 209°
2026-04-23 21:33 35.22055 -80.93809 746 ft 1 kts 209°
2026-04-23 21:33 35.22055 -80.93810 746 ft 0 kts 209°
2026-04-23 21:33 35.22054 -80.93810 746 ft 0 kts 209°
2026-04-23 21:34 35.22051 -80.93811 746 ft 0 kts 202°
2026-04-23 21:34 35.22049 -80.93820 746 ft 1 kts 244°
2026-04-23 21:35 35.22053 -80.93828 746 ft 1 kts 288°
2026-04-23 21:35 35.22064 -80.93830 746 ft 1 kts 348°
2026-04-23 21:35 35.22096 -80.93825 748 ft 11 kts
2026-04-23 21:35 35.22179 -80.93797 750 ft 12 kts 36°
2026-04-23 21:36 35.22288 -80.93735 752 ft 13 kts 356°
2026-04-23 21:36 35.22374 -80.93743 753 ft 13 kts 355°
2026-04-23 21:36 35.22470 -80.93751 754 ft 13 kts 357°
2026-04-23 21:37 35.22496 -80.93733 756 ft 7 kts 49°
2026-04-23 21:37 35.22511 -80.93679 755 ft 5 kts 85°
2026-04-23 21:37 35.22503 -80.93637 754 ft 4 kts 121°
2026-04-23 21:37 35.22476 -80.93618 755 ft 6 kts 160°
2026-04-23 21:38 35.22432 -80.93612 752 ft 9 kts 174°
2026-04-23 21:38 35.22186 -80.93592 751 ft 69 kts 176°
2026-04-23 21:38 35.21475 -80.93530 746 ft 134 kts 176°
2026-04-23 21:38 35.20344 -80.93430 774 ft 188 kts 175°
2026-04-23 21:39 35.18986 -80.93195 1228 ft 211 kts 172°
2026-04-23 21:39 35.17386 -80.92910 1643 ft 241 kts 175°
2026-04-23 21:39 35.15719 -80.92689 2681 ft 248 kts 175°
2026-04-23 21:39 35.13970 -80.92401 3169 ft 266 kts 173°
2026-04-23 21:40 35.12140 -80.92066 3907 ft 265 kts 173°
2026-04-23 21:40 35.10309 -80.91755 4605 ft 268 kts 175°
2026-04-23 21:40 35.08445 -80.91626 5274 ft 270 kts 178°
2026-04-23 21:40 35.06577 -80.91362 5987 ft 271 kts 172°
2026-04-23 21:41 35.04699 -80.90945 6567 ft 276 kts 171°
2026-04-23 21:41 35.02784 -80.90651 7105 ft 278 kts 177°
2026-04-23 21:41 35.00847 -80.90551 7692 ft 279 kts 179°
2026-04-23 21:41 34.98897 -80.90347 8265 ft 283 kts 173°
2026-04-23 21:42 34.96942 -80.89938 8786 ft 287 kts 168°
2026-04-23 21:42 34.95146 -80.88881 9374 ft 291 kts 137°
2026-04-23 21:42 34.93936 -80.86882 9814 ft 299 kts 118°
2026-04-23 21:42 34.92926 -80.84635 10309 ft 302 kts 124°
2026-04-23 21:43 34.91617 -80.82650 10813 ft 304 kts 134°
2026-04-23 21:43 34.90142 -80.80698 10917 ft 324 kts 130°
2026-04-23 21:43 34.88770 -80.78408 10966 ft 345 kts 124°
2026-04-23 21:43 34.87387 -80.75908 10986 ft 366 kts 127°
2026-04-23 21:44 34.85744 -80.73444 11213 ft 378 kts 132°
2026-04-23 21:44 34.84042 -80.71047 12063 ft 374 kts 129°
2026-04-23 21:44 34.82483 -80.68481 12581 ft 379 kts 124°
2026-04-23 21:44 34.80977 -80.65889 13204 ft 381 kts 127°
2026-04-23 21:45 34.79314 -80.63372 13849 ft 383 kts 129°
2026-04-23 21:45 34.77609 -80.60865 14364 ft 387 kts 128°
2026-04-23 21:45 34.76001 -80.58232 14918 ft 389 kts 125°
2026-04-23 21:45 34.74384 -80.55569 15451 ft 392 kts 128°
2026-04-23 21:46 34.72657 -80.52984 16034 ft 395 kts 129°
2026-04-23 21:46 34.70929 -80.50373 16619 ft 399 kts 127°
2026-04-23 21:46 34.69263 -80.47665 17210 ft 402 kts 126°
2026-04-23 21:46 34.67560 -80.44942 17802 ft 406 kts 128°
2026-04-23 21:47 34.65777 -80.42258 18403 ft 410 kts 129°
2026-04-23 21:47 34.63999 -80.39529 18942 ft 414 kts 128°
2026-04-23 21:47 34.62242 -80.36696 19017 ft 422 kts 127°
2026-04-23 21:47 34.60467 -80.33900 19019 ft 414 kts 129°
2026-04-23 21:48 34.58676 -80.31191 19023 ft 409 kts 129°
2026-04-23 21:48 34.56915 -80.28492 19009 ft 408 kts 128°
2026-04-23 21:48 34.55204 -80.25754 19012 ft 407 kts 127°
2026-04-23 21:48 34.53474 -80.23035 19013 ft 407 kts 129°
2026-04-23 21:49 34.51702 -80.20355 19015 ft 408 kts 129°
2026-04-23 21:49 34.49942 -80.17657 19014 ft 407 kts 128°
2026-04-23 21:49 34.48218 -80.14930 19014 ft 407 kts 128°
2026-04-23 21:49 34.46478 -80.12217 19014 ft 407 kts 129°
2026-04-23 21:50 34.44712 -80.09536 19014 ft 407 kts 129°
2026-04-23 21:50 34.42959 -80.06840 19016 ft 407 kts 128°
2026-04-23 21:50 34.41232 -80.04129 19016 ft 407 kts 128°
2026-04-23 21:50 34.39508 -80.01470 19015 ft 407 kts 129°
2026-04-23 21:51 34.37749 -79.98793 19018 ft 406 kts 129°
2026-04-23 21:51 34.36002 -79.96096 19011 ft 407 kts 127°
2026-04-23 21:51 34.34288 -79.93376 19010 ft 405 kts 128°
2026-04-23 21:51 34.32563 -79.90725 18628 ft 400 kts 129°
2026-04-23 21:52 34.30812 -79.88130 18244 ft 396 kts 129°
2026-04-23 21:52 34.29107 -79.85520 17816 ft 395 kts 128°
2026-04-23 21:52 34.27450 -79.82897 17409 ft 389 kts 128°
2026-04-23 21:52 34.25793 -79.80346 16991 ft 383 kts 129°
2026-04-23 21:53 34.24126 -79.77857 16588 ft 378 kts 129°
2026-04-23 21:53 34.22506 -79.75378 16177 ft 373 kts 128°
2026-04-23 21:53 34.20933 -79.72920 15768 ft 368 kts 128°
2026-04-23 21:53 34.19355 -79.70514 15370 ft 363 kts 128°
2026-04-23 21:54 34.17786 -79.68156 14979 ft 358 kts 128°
2026-04-23 21:54 34.16259 -79.65806 14590 ft 353 kts 127°
2026-04-23 21:54 34.14758 -79.63485 14201 ft 348 kts 127°
2026-04-23 21:54 34.13251 -79.61211 13830 ft 346 kts 128°
2026-04-23 21:55 34.11753 -79.58945 13405 ft 345 kts 127°
2026-04-23 21:55 34.10273 -79.56665 12986 ft 345 kts 128°
2026-04-23 21:55 34.08774 -79.54408 12564 ft 344 kts 128°
2026-04-23 21:55 34.07285 -79.52160 12167 ft 342 kts 128°
2026-04-23 21:56 34.05823 -79.49899 11761 ft 342 kts 128°
2026-04-23 21:56 34.04354 -79.47652 11354 ft 341 kts 129°
2026-04-23 21:56 34.02870 -79.45438 10968 ft 338 kts 129°
2026-04-23 21:56 34.01410 -79.43224 10583 ft 337 kts 128°
2026-04-23 21:57 33.99974 -79.41009 10195 ft 333 kts 129°
2026-04-23 21:57 33.98541 -79.38846 9792 ft 328 kts 129°
2026-04-23 21:57 33.97597 -79.37436 9520 ft 325 kts 129°
2026-04-23 21:57 33.96201 -79.35318 9083 ft 320 kts 129°
2026-04-23 21:58 33.94841 -79.33230 8679 ft 314 kts 128°
2026-04-23 21:58 33.93755 -79.30983 8276 ft 308 kts 109°
2026-04-23 21:58 33.93221 -79.28529 7898 ft 301 kts 101°
2026-04-23 21:58 33.92830 -79.26073 7519 ft 296 kts 102°
2026-04-23 21:59 33.92428 -79.23657 7124 ft 292 kts 102°
2026-04-23 21:59 33.92037 -79.21271 6734 ft 290 kts 101°
2026-04-23 21:59 33.91667 -79.18892 6355 ft 288 kts 101°
2026-04-23 22:00 33.90967 -79.14159 5530 ft 285 kts 101°
2026-04-23 22:00 33.90626 -79.11857 5111 ft 283 kts 101°
2026-04-23 22:00 33.90270 -79.09509 4696 ft 281 kts 101°
2026-04-23 22:00 33.89928 -79.07232 4271 ft 280 kts 101°
2026-04-23 22:01 33.89594 -79.04920 3849 ft 280 kts 101°
2026-04-23 22:01 33.89257 -79.02624 3417 ft 277 kts 100°
2026-04-23 22:01 33.88942 -79.00344 3014 ft 276 kts 99°
2026-04-23 22:01 33.88637 -78.98081 2595 ft 274 kts 100°
2026-04-23 22:02 33.88317 -78.95826 2161 ft 271 kts 101°
2026-04-23 22:02 33.87913 -78.93657 1840 ft 259 kts 117°
2026-04-23 22:02 33.86807 -78.92110 2013 ft 245 kts 156°
2026-04-23 22:02 33.85181 -78.91710 1988 ft 237 kts 194°
2026-04-23 22:03 33.83752 -78.92568 2079 ft 231 kts 227°
2026-04-23 22:03 33.83082 -78.94258 2013 ft 222 kts 269°
2026-04-23 22:03 33.83471 -78.96020 2061 ft 225 kts 298°
2026-04-23 22:03 33.84354 -78.97576 1962 ft 223 kts 301°
2026-04-23 22:04 33.85168 -78.99107 1985 ft 211 kts 297°
2026-04-23 22:04 33.85953 -79.00673 1982 ft 222 kts 299°
2026-04-23 22:04 33.86790 -79.02189 1910 ft 215 kts 301°
2026-04-23 22:04 33.87648 -79.03665 2121 ft 221 kts 301°
2026-04-23 22:05 33.88527 -79.05210 2010 ft 223 kts 301°
2026-04-23 22:05 33.89455 -79.06644 1868 ft 213 kts 321°
2026-04-23 22:05 33.90817 -79.07310 1671 ft 219 kts
2026-04-23 22:05 33.92203 -79.06624 1248 ft 222 kts 53°
2026-04-23 22:06 33.92616 -79.04996 1226 ft 199 kts 110°
2026-04-23 22:06 33.91879 -79.03680 1770 ft 189 kts 144°
2026-04-23 22:06 33.90812 -79.02596 1943 ft 216 kts 139°
2026-04-23 22:06 33.89781 -79.01315 1898 ft 204 kts 136°
2026-04-23 22:07 33.88821 -79.00051 1974 ft 209 kts 135°
2026-04-23 22:07 33.87857 -78.98760 1959 ft 202 kts 135°
2026-04-23 22:07 33.86850 -78.97588 1938 ft 204 kts 152°
2026-04-23 22:07 33.85560 -78.97142 2080 ft 189 kts 180°
2026-04-23 22:08 33.84175 -78.97041 1992 ft 204 kts 168°
2026-04-23 22:08 33.82891 -78.96488 1959 ft 190 kts 166°
2026-04-23 22:08 33.81584 -78.96258 1637 ft 192 kts 179°
2026-04-23 22:08 33.80289 -78.95962 1505 ft 185 kts 166°
2026-04-23 22:09 33.79085 -78.95594 1621 ft 185 kts 173°
2026-04-23 22:09 33.77780 -78.95327 1590 ft 184 kts 171°
2026-04-23 22:09 33.76573 -78.95006 1529 ft 182 kts 170°
2026-04-23 22:09 33.75371 -78.94670 1288 ft 169 kts 171°
2026-04-23 22:10 33.74257 -78.94406 1057 ft 158 kts 172°
2026-04-23 22:10 33.73169 -78.94144 829 ft 163 kts 169°
2026-04-23 22:10 33.72070 -78.93857 622 ft 157 kts 169°
2026-04-23 22:10 33.71043 -78.93589 373 ft 148 kts 170°
2026-04-23 22:11 33.70016 -78.93347 204 ft 161 kts 169°
2026-04-23 22:11 33.68913 -78.93067 39 ft 153 kts 169°
2026-04-23 22:11 33.68152 -78.92876 33 ft 71 kts 169°
2026-04-23 22:11 33.67817 -78.92790 34 ft 43 kts 168°
2026-04-23 22:12 33.67575 -78.92669 33 ft 30 kts 141°
2026-04-23 22:12 33.67488 -78.92586 33 ft 0 kts 140°
2026-04-23 22:12 33.67479 -78.92574 33 ft 9 kts 129°
2026-04-23 22:13 33.67512 -78.92518 33 ft 8 kts 357°
2026-04-23 22:13 33.67640 -78.92548 34 ft 27 kts 348°
2026-04-23 22:13 33.67828 -78.92596 34 ft 27 kts 347°
2026-04-23 22:13 33.68008 -78.92638 34 ft 26 kts 349°
2026-04-23 22:14 33.68166 -78.92646 34 ft 19 kts 33°
2026-04-23 22:14 33.68213 -78.92509 34 ft 17 kts 81°
2026-04-23 22:14 33.68216 -78.92433 34 ft 7 kts 90°
2026-04-23 22:14 33.68216 -78.92424 34 ft 0 kts 91°